Simultaneous Nadir Overpasses (SNOs) Predictions

Prediction of SNOs between GOES-17 and AQUA Satellite Orbit:

Table of predicted SNOs for the next 14.0 days since TLE Epoch: 12/13/2019
Index Date Time (GOES-17) GOES-17 Lat,Lon AQUA Lat,Lon Distance(km) Time Diff (sec)
1 12/13/2019 23:00:39 -0.02,-137.21 -0.77,-140.87 415.22 80
2 12/15/2019 22:48:29 -0.01,-137.22 -0.15,-137.91 79.14 80
3 12/17/2019 22:33:38 0.00,-137.21 0.47,-134.96 256.44 80
4 12/18/2019 10:57:33 0.00,-137.22 0.62,-140.11 329.33 80
5 12/20/2019 10:42:42 -0.00,-137.21 -0.01,-137.16 5.87 80
6 12/22/2019 10:30:32 0.00,-137.20 -0.64,-134.20 340.69 80
7 12/22/2019 22:54:35 -0.01,-137.19 -0.47,-139.39 250.67 80
8 12/24/2019 22:39:44 -0.01,-137.17 0.16,-136.44 83.39 80
9 12/26/2019 22:27:33 -0.01,-137.14 0.80,-133.48 416.79 80
10 12/27/2019 10:51:28 0.02,-137.14 0.33,-138.63 169.30 80




NCC Satellite Simultaneous Nadir Overpasses (SNOs) Prediction Service
